Wind_Speed
6 5 5 4 4 5 5 5 5 5 4 3 3 4 4 4 5 5 5 5 5 5 6 6 7 7 7 7 7 7 8 8 8 7 6 6 6 6 6 6 6 5 6
6 5 5 6 6 5 5 6 6 5 4 4 5 5 5 5 5 6 6 6 6 6 7 7 7 8 8 8 8 8 8 8 8 8 8 7 7 7 7 6 6 6 6
6 6 6 7 7 7 6 6 6 6 5 5 6 5 6 5 5 6 6 6 6 7 7 8 8 9 8 9 9 8 8 8 8 9 8 8 8 8 7 7 8 7 7
7 7 7 8 8 8 7 7 7 7 6 6 6 6 6 5 5 6 6 6 6 7 7 8 8 8 8 9 9 9 9 9 9 9 9 9 8 8 8 8 7 8 7
7 8 8 8 8 8 7 7 7 8 7 6 6 6 6 5 6 6 6 7 7 7 8 8 8 8 9 9 10 10 9 10 9 9 10 9 9 8 8 8 7 8 8
8 9 9 9 8 8 7 7 7 8 7 6 6 6 6 6 6 6 7 8 8 7 8 8 9 8 9 9 10 10 10 9 10 10 10 9 9 9 9 9 8 8 9
9 9 9 8 8 8 7 7 7 7 6 7 7 6 6 6 5 5 6 7 8 8 8 8 9 8 9 9 10 10 10 10 10 10 10 10 9 10 10 10 10 9 9
9 9 8 8 8 8 8 8 7 7 7 6 6 6 6 6 6 6 6 6 6 7 7 8 8 8 9 9 9 10 10 10 9 10 11 10 10 10 10 11 11 11 11
9 8 8 8 9 8 8 8 8 8 8 7 6 6 6 6 6 6 6 6 6 6 7 8 8 8 8 8 8 9 10 10 10 10 11 11 11 10 11 11 11 11 11
9 7 7 8 8 8 8 7 7 7 7 7 7 6 6 6 6 6 6 6 6 6 6 6 6 7 7 7 7 8 9 9 10 11 11 11 11 11 11 12 11 11 12
7 7 6 7 7 7 7 6 6 7 7 7 7 6 5 6 6 6 6 6 5 5 4 4 5 5 6 6 7 7 8 9 10 10 11 11 12 12 12 12 12 11 12
7 7 6 7 7 6 7 7 6 6 7 7 6 6 5 5 5 5 5 5 5 4 4 3 4 5 6 6 6 7 8 8 9 9 10 11 11 11 12 12 11 11 11
8 7 7 7 7 7 7 7 7 6 6 6 6 4 4 5 4 4 4 4 4 4 3 3 4 5 5 5 6 6 7 8 8 8 9 10 10 10 10 11 11 10 10
8 8 8 7 7 7 7 6 6 5 6 6 5 4 4 4 4 4 4 4 3 3 3 2 2 3 2 3 3 3 4 5 5 6 7 8 8 8 9 10 10 11 11
9 9 9 8 8 7 6 6 5 5 5 5 5 4 4 3 4 4 3 3 2 3 2 2 2 1 2 2 2 2 3 5 4 5 5 7 7 7 8 8 9 10 11
9 9 8 8 7 6 5 4 4 5 5 5 5 4 4 4 4 4 3 2 2 2 1 1 2 2 2 2 2 3 3 4 4 5 5 6 7 7 7 7 8 9 9
8 8 7 6 5 5 5 4 4 4 4 5 5 5 4 4 4 3 3 2 2 1 1 1 1 1 1 1 2 2 2 3 3 4 4 5 6 6 6 6 7 8 8
8 7 7 6 5 4 4 3 4 4 4 5 5 5 4 4 4 4 3 2 2 2 2 1 1 1 0 1 1 1 1 1 2 3 3 3 4 4 5 5 5 6 7
8 7 6 5 5 4 5 4 3 4 4 4 4 4 4 3 4 4 3 2 2 2 2 1 1 1 0 1 1 1 1 2 2 2 3 3 3 3 4 5 5 6 6
7 6 6 5 5 4 4 3 3 4 4 3 4 4 3 3 3 3 3 2 1 1 1 1 1 1 1 0 1 2 2 2 2 2 3 3 3 3 3 5 5 6 6
7 6 5 5 5 4 3 3 3 3 3 3 4 3 2 2 3 2 2 2 1 1 2 1 0 1 1 0 1 2 2 2 2 3 3 2 2 2 3 4 5 5 6
7 6 6 5 5 4 4 4 3 3 3 3 3 3 2 2 2 2 1 1 1 1 1 1 0 0 1 1 1 2 2 2 2 2 2 2 2 2 3 4 5 5 5
7 7 6 5 5 4 4 4 3 3 3 3 2 2 2 2 2 1 1 1 1 1 1 0 1 1 1 1 1 1 2 2 2 2 2 3 3 3 3 4 5 5 6
7 7 6 5 5 5 4 4 4 3 3 3 2 2 2 1 1 1 0 0 1 1 0 1 1 1 1 0 1 1 2 2 2 3 3 3 3 4 4 5 5 5 5
7 7 7 6 5 5 5 4 4 4 3 3 3 3 2 1 1 1 0 0 0 1 1 1 1 1 1 1 1 2 2 3 3 2 3 3 4 5 5 5 6 5 5
8 8 8 7 6 6 5 5 5 4 4 3 3 3 2 2 1 0 0 1 1 1 1 1 1 1 1 1 2 2 2 3 3 3 3 4 5 5 5 5 6 6 6
Wind_Direction
297 292 294 296 290 279 270 273 271 279 280 274 278 277 260 245 239 233 234 243 245 243 238 234 233 234 230 227 224 224 225 222 218 218 221 224 227 225 229 231 230 227 230
290 287 295 293 296 285 275 279 274 276 281 286 293 286 273 262 267 263 254 256 255 252 248 240 239 238 236 232 230 227 226 227 226 225 227 232 234 232 230 231 234 233 233
289 287 293 297 293 292 285 281 275 267 278 285 286 281 272 274 271 270 266 265 264 257 251 248 246 239 237 238 234 229 230 230 229 229 229 232 233 235 237 236 238 238 236
285 287 291 295 294 295 291 291 287 278 282 290 287 284 276 274 273 279 277 273 268 260 253 256 252 242 237 239 235 234 234 233 232 230 231 230 232 235 237 238 240 237 235
289 289 292 295 294 294 292 293 295 285 288 294 296 298 294 283 277 278 282 279 273 263 258 258 251 246 241 240 238 237 237 234 233 231 231 230 233 237 238 240 239 236 235
291 289 288 294 295 298 300 301 300 291 289 296 299 299 298 290 281 277 282 280 277 270 263 256 251 246 245 243 239 237 238 236 234 231 231 234 235 238 240 240 241 239 238
295 289 292 295 301 311 307 304 308 303 297 299 301 299 297 296 289 285 286 282 277 272 264 258 254 249 246 245 242 237 236 235 233 231 234 236 239 241 243 241 243 244 244
297 292 292 291 300 307 307 302 309 309 302 302 304 294 296 293 284 289 287 283 283 277 266 259 256 250 246 247 245 237 234 233 233 233 235 238 239 242 244 243 245 247 250
293 293 292 294 297 301 302 303 306 311 308 306 304 299 295 294 287 285 283 280 284 284 272 260 254 248 246 244 240 235 234 232 233 236 237 238 239 240 244 245 247 249 251
296 296 294 295 297 300 302 304 311 315 315 312 304 301 300 294 290 285 281 282 283 284 276 262 248 243 239 239 239 237 235 235 236 239 240 239 238 241 245 246 249 251 253
303 300 300 301 301 301 303 304 310 316 320 319 308 301 300 299 296 292 283 285 285 284 277 260 249 241 237 240 240 242 238 238 240 241 242 243 243 246 247 247 249 253 253
303 299 304 304 303 304 304 308 312 316 321 322 314 306 299 299 298 294 287 284 287 280 277 266 249 244 243 242 243 242 239 239 241 243 245 248 246 245 247 247 249 255 255
297 303 304 303 305 309 309 309 314 319 328 333 326 318 312 306 306 301 299 293 289 276 271 271 241 246 247 243 241 242 246 245 245 245 247 248 245 244 245 245 246 252 256
294 298 301 304 305 306 306 307 312 318 329 335 332 322 315 311 316 316 306 292 281 276 270 265 235 238 239 233 233 242 253 249 252 248 249 250 249 248 247 249 250 252 251
297 299 299 300 305 305 305 308 310 317 325 331 334 323 314 313 329 323 309 290 270 265 260 264 260 255 247 245 248 242 254 255 245 252 253 249 248 249 251 250 250 254 254
297 298 296 296 302 305 305 306 313 320 326 334 337 337 328 323 331 332 317 308 289 289 283 270 266 263 267 256 254 243 250 250 244 251 254 249 245 251 252 250 251 255 257
300 298 295 296 298 299 301 301 306 315 321 339 338 333 331 327 329 335 331 321 307 312 303 289 264 257 260 218 220 227 246 248 252 253 255 253 251 250 247 252 253 257 259
301 295 291 292 292 291 295 294 306 315 319 331 334 332 335 330 322 334 336 335 334 347 355 345 316 272 242 189 199 223 261 275 265 260 262 267 259 251 249 254 256 262 264
301 293 285 283 286 289 292 294 300 312 321 328 335 334 333 330 321 327 340 344 350 350 351 4 359 315 223 207 234 271 294 302 299 265 264 270 266 263 258 257 263 268 270
299 292 282 273 280 292 299 296 303 312 315 322 335 340 338 335 335 335 337 349 1 18 48 54 63 85 135 254 283 294 297 292 281 289 271 267 268 274 270 265 268 274 274
289 287 284 274 276 282 295 304 305 310 315 319 328 341 354 1 359 357 352 354 34 83 89 99 94 72 47 2 304 300 292 294 295 297 276 276 275 284 281 279 277 281 277
277 279 281 278 271 273 281 296 298 311 316 316 324 337 349 354 2 14 27 42 74 88 87 114 109 68 26 334 301 303 305 302 298 297 287 286 286 291 288 287 286 288 290
271 274 276 270 265 273 277 277 282 299 315 323 325 321 325 335 350 9 21 68 94 103 115 144 186 260 310 321 323 316 318 312 312 309 307 310 301 292 291 296 301 296 295
267 270 272 267 266 269 269 269 276 285 291 304 320 319 311 317 329 345 355 68 116 100 106 173 204 224 237 331 317 318 324 320 316 309 303 295 294 296 291 292 299 300 299
265 266 268 266 264 259 263 266 269 276 278 285 297 309 306 302 322 321 281 234 143 98 102 160 205 246 243 284 313 319 331 326 317 308 303 296 297 299 298 297 304 302 301
260 262 262 263 258 252 256 260 264 269 271 277 285 291 281 279 281 41 137 143 131 114 108 166 206 253 292 300 319 315 314 316 311 302 294 295 299 309 315 310 310 308 305
Height
5881 5880 5880 5880 5879 5879 5879 5878 5878 5878 5877 5877 5877 5877 5877 5877 5877 5878 5878 5878 5879 5879 5880 5880 5880 5881 5881 5882 5883 5883 5884 5885 5887 5887 5888 5889 5890 5891 5892 5893 5893 5894 5895
5880 5879 5879 5879 5879 5878 5878 5877 5877 5877 5877 5877 5877 5876 5876 5876 5876 5877 5877 5877 5877 5878 5879 5879 5879 5880 5880 5881 5882 5882 5883 5884 5886 5887 5888 5888 5890 5891 5891 5892 5893 5893 5894
5880 5879 5879 5878 5878 5877 5877 5876 5876 5876 5876 5876 5875 5875 5875 5875 5876 5876 5876 5876 5876 5877 5877 5877 5878 5878 5879 5880 5880 5881 5882 5883 5884 5885 5886 5887 5888 5889 5890 5891 5892 5893 5893
5879 5879 5878 5877 5877 5876 5876 5875 5875 5875 5875 5875 5874 5874 5874 5874 5875 5875 5875 5875 5875 5875 5875 5876 5876 5876 5877 5878 5879 5880 5881 5882 5883 5884 5885 5886 5887 5888 5889 5890 5891 5892 5892
5878 5878 5877 5877 5876 5875 5875 5874 5874 5874 5874 5874 5874 5874 5874 5873 5873 5873 5873 5873 5873 5873 5874 5874 5875 5875 5875 5876 5877 5878 5879 5880 5882 5883 5884 5885 5886 5887 5888 5889 5890 5891 5892
5877 5877 5876 5876 5875 5874 5874 5873 5873 5873 5872 5872 5872 5872 5872 5872 5872 5872 5872 5872 5872 5872 5872 5872 5873 5873 5874 5874 5875 5876 5877 5879 5880 5881 5882 5883 5885 5886 5887 5888 5889 5890 5891
5876 5876 5875 5875 5874 5873 5873 5873 5872 5872 5871 5871 5871 5871 5871 5871 5871 5871 5871 5870 5870 5870 5870 5871 5871 5871 5872 5873 5873 5874 5876 5877 5878 5879 5881 5882 5883 5884 5886 5887 5888 5889 5890
5875 5875 5874 5874 5873 5873 5872 5872 5871 5871 5870 5870 5870 5870 5870 5870 5869 5869 5869 5869 5869 5869 5869 5869 5869 5870 5870 5871 5872 5873 5874 5875 5877 5878 5879 5880 5882 5883 5884 5885 5886 5887 5888
5874 5874 5873 5873 5872 5872 5871 5871 5870 5870 5870 5869 5869 5869 5868 5868 5868 5868 5868 5868 5867 5867 5867 5867 5868 5868 5869 5869 5870 5871 5872 5873 5875 5876 5878 5879 5880 5881 5882 5884 5885 5886 5886
5873 5872 5872 5872 5871 5871 5870 5870 5869 5869 5869 5868 5868 5867 5867 5867 5867 5867 5867 5866 5866 5866 5865 5865 5866 5867 5867 5868 5869 5870 5871 5872 5874 5875 5876 5877 5878 5879 5881 5882 5883 5884 5885
5872 5871 5871 5871 5870 5870 5869 5869 5868 5868 5868 5867 5867 5866 5866 5866 5866 5865 5865 5865 5865 5865 5864 5864 5865 5865 5866 5867 5868 5869 5870 5871 5872 5873 5874 5875 5876 5878 5879 5880 5881 5882 5883
5871 5871 5870 5870 5869 5869 5868 5868 5868 5867 5867 5866 5866 5865 5865 5865 5865 5864 5864 5864 5864 5864 5863 5863 5864 5864 5865 5866 5867 5868 5868 5869 5871 5872 5873 5874 5875 5876 5877 5878 5879 5880 5881
5870 5869 5869 5869 5869 5868 5868 5867 5867 5867 5866 5865 5865 5864 5864 5864 5863 5863 5863 5863 5863 5863 5863 5863 5863 5863 5864 5865 5865 5866 5867 5868 5869 5870 5871 5872 5873 5874 5875 5876 5877 5878 5879
5869 5869 5869 5868 5868 5867 5867 5866 5866 5866 5865 5865 5864 5864 5863 5863 5863 5862 5862 5862 5862 5862 5862 5862 5862 5863 5863 5864 5864 5865 5866 5867 5868 5868 5869 5870 5871 5872 5873 5875 5876 5876 5877
5868 5868 5868 5867 5867 5866 5866 5866 5866 5865 5865 5864 5863 5863 5863 5863 5862 5862 5862 5861 5861 5861 5861 5862 5862 5862 5863 5863 5864 5865 5865 5866 5867 5868 5868 5869 5870 5871 5872 5873 5874 5875 5875
5867 5867 5867 5866 5866 5866 5866 5865 5865 5865 5864 5864 5863 5863 5863 5862 5862 5861 5861 5861 5861 5861 5861 5861 5862 5862 5862 5863 5864 5865 5865 5866 5866 5867 5867 5868 5869 5870 5871 5871 5872 5873 5874
5866 5866 5866 5865 5865 5865 5865 5865 5865 5864 5864 5863 5863 5862 5862 5862 5862 5861 5861 5861 5861 5861 5861 5861 5862 5862 5862 5863 5864 5864 5865 5865 5865 5866 5866 5867 5868 5869 5870 5870 5871 5871 5872
5865 5865 5865 5865 5865 5865 5865 5865 5865 5864 5864 5863 5863 5862 5862 5862 5861 5861 5861 5861 5860 5860 5861 5861 5862 5862 5863 5863 5864 5864 5864 5865 5865 5865 5866 5867 5867 5868 5869 5869 5870 5870 5871
5864 5864 5864 5864 5864 5864 5864 5864 5864 5864 5863 5863 5863 5862 5862 5861 5861 5861 5860 5860 5860 5861 5861 5861 5862 5862 5863 5863 5864 5864 5864 5865 5865 5865 5866 5866 5867 5867 5868 5868 5869 5869 5870
5863 5863 5863 5863 5863 5864 5864 5864 5864 5863 5863 5863 5863 5862 5862 5861 5861 5861 5860 5860 5860 5861 5861 5861 5862 5862 5863 5863 5864 5864 5864 5864 5865 5865 5865 5866 5866 5867 5867 5868 5868 5869 5869
5862 5862 5862 5862 5863 5863 5863 5863 5863 5863 5863 5863 5862 5862 5862 5861 5861 5861 5861 5861 5861 5861 5861 5862 5862 5863 5863 5863 5864 5864 5864 5864 5864 5864 5865 5865 5866 5866 5867 5867 5868 5868 5868
5861 5861 5861 5861 5862 5862 5863 5863 5863 5863 5863 5863 5862 5862 5862 5861 5861 5861 5861 5861 5861 5862 5862 5862 5863 5863 5863 5864 5864 5864 5864 5865 5864 5864 5865 5865 5865 5866 5866 5867 5867 5867 5867
5859 5860 5860 5861 5861 5861 5862 5862 5862 5863 5862 5862 5862 5862 5861 5861 5861 5861 5861 5861 5861 5862 5862 5863 5863 5863 5864 5864 5864 5864 5864 5864 5864 5865 5865 5865 5865 5865 5866 5866 5866 5866 5866
5858 5859 5859 5859 5860 5860 5861 5861 5862 5862 5862 5862 5862 5861 5861 5861 5861 5861 5861 5861 5862 5862 5862 5863 5863 5863 5864 5864 5864 5864 5865 5865 5865 5865 5865 5865 5865 5865 5865 5865 5865 5864 5864
5857 5858 5858 5858 5859 5859 5860 5861 5861 5861 5861 5861 5861 5861 5861 5861 5861 5861 5861 5862 5862 5862 5863 5863 5863 5864 5864 5864 5865 5865 5865 5865 5865 5865 5865 5865 5865 5864 5864 5864 5864 5863 5863
5856 5856 5857 5857 5858 5859 5859 5860 5860 5861 5861 5861 5861 5861 5861 5861 5861 5861 5861 5862 5862 5863 5863 5863 5864 5864 5864 5865 5865 5865 5865 5865 5865 5865 5865 5864 5864 5864 5863 5863 5863 5862 5862